Погода в Гавриловке 1-ой

Россия / Тамбовская область     52°50′49″N   42°48′27″E
темп.,
°C
ветер,
м/с
пор.,
м/с
влажн.,
%
обл.,
%
осадки,
мм/ч
давл.,
гПа
погр.,
м
7 марта, вс
вс700:00−12зсз499582 0.0 1015161
03:00−14зсз349443 0.0 101678
06:00−15зюз44950 0.0 101677
09:00−11юз510920 0.0 1015297
12:00−7юз8138583 0.0 1012730
15:00−4юз10168191 0.0 10081037
18:00−4юз91876100 0.0 10041138
21:00−3юз101794100 0.6 10011063
8 марта, пн
пн800:00−2юз101792100 0.7 9991052
03:00−4зсз61289100 0.9 1000482
06:00−8зюз4109039 0.0 1001182
09:00−6юз6128337 0.0 1002440
12:00−3зюз7118892 0.0 1001953
15:00−2з7128096 0.5 10011473
18:00−7з5118561 0.1 1003268
21:00−10з469339 0.1 100696
9 марта, вт
вт900:00−12з45942 0.0 100887
03:00−14зсз459517 0.0 100987
06:00−15зсз34963 0.0 101177
09:00−14сз47945 0.0 1013245
12:00−11сз359282 0.0 1014362
15:00−10зсз468791 0.0 1015634
18:00−14сз349272 0.0 101677
21:00−17сз479638 0.0 1018103
10 марта, ср
ср1000:00−19сз469840 0.0 1019105
03:00−20сз349963 0.0 102161
06:00−22сз349974 0.0 102276
09:00−21сз589572 0.0 1023321
12:00−18сз478955 0.0 1025452
15:00−17сз478765 0.0 1025531
18:00−20сз349350 0.0 102557
21:00−23сз339725 0.0 102825
11 марта, чт
чт1100:00−24сз23980 0.0 102820
03:00−25сз12970 0.0 103020
06:00−25юз12940 0.0 103020
09:00−20ююз22870 0.0 103091
12:00−16ююз35830 0.0 1030264
15:00−15ю57852 0.0 1028298
18:00−16ю489178 0.0 1027179
21:00−16ю5118978 0.0 1027225